Location: Saint Louis
(38.6272°N, 90.1978°W)
Time: 21:15:51

ISS - Pass Details

Date: 12 April 2013
Orbit: 399 x 408 km, 51.6° (Epoch: 26 October)

Event Time Altitude Azimuth Distance (km) Brightness Sun altitude
Rises 20:08:04 0° 316° (NW) 2,349 1.8 -7.1°
Reaches altitude 10° 20:10:22 10° 330° (NNW) 1,501 0.3 -7.5°
Maximum altitude 20:13:14 25° 29° (NNE) 893 -1.7 -8.0°
Enters shadow 20:16:11 10° 87° (E) 1,543 -1.0 -8.6°
